QPF
0.00 0.00 0.00 0.00 0.00 0.00 0.00 0.00 0.00 0.00 0.00 0.00 0.00 0.00 0.00 0.00 0.00 0.00 0.00 0.00 0.00 0.00 0.00 0.00 0.00 0.00 0.00 0.00 0.00 0.00 0.00 0.00 0.00 0.00 0.00 0.00 0.00 0.00 0.01 0.02 0.04 0.07 0.06 0.02 0.01 0.02 0.03 0.06 0.12
0.00 0.00 0.00 0.00 0.00 0.00 0.00 0.00 0.00 0.00 0.00 0.00 0.00 0.00 0.00 0.00 0.00 0.00 0.00 0.00 0.00 0.00 0.00 0.00 0.00 0.00 0.00 0.00 0.00 0.00 0.00 0.00 0.00 0.00 0.00 0.00 0.00 0.00 0.01 0.02 0.05 0.06 0.08 0.08 0.05 0.02 0.03 0.08 0.14
0.00 0.00 0.00 0.00 0.00 0.00 0.00 0.00 0.00 0.00 0.00 0.00 0.00 0.00 0.00 0.00 0.00 0.00 0.00 0.00 0.00 0.00 0.00 0.00 0.00 0.00 0.00 0.00 0.00 0.00 0.00 0.00 0.00 0.00 0.00 0.00 0.00 0.00 0.01 0.02 0.04 0.05 0.04 0.04 0.03 0.02 0.02 0.04 0.07
0.00 0.00 0.00 0.00 0.00 0.00 0.00 0.00 0.00 0.00 0.00 0.00 0.00 0.00 0.00 0.00 0.00 0.00 0.00 0.00 0.00 0.00 0.00 0.00 0.00 0.00 0.00 0.00 0.00 0.00 0.00 0.00 0.00 0.00 0.00 0.00 0.00 0.00 0.00 0.01 0.01 0.02 0.01 0.02 0.02 0.01 0.01 0.05 0.08
0.00 0.00 0.00 0.00 0.00 0.00 0.00 0.00 0.00 0.00 0.00 0.00 0.00 0.00 0.00 0.00 0.00 0.00 0.00 0.00 0.00 0.00 0.00 0.00 0.00 0.00 0.00 0.00 0.00 0.00 0.00 0.00 0.00 0.00 0.00 0.01 0.00 0.00 0.00 0.01 0.01 0.00 0.00 0.00 0.01 0.01 0.02 0.06 0.09
0.00 0.00 0.00 0.00 0.00 0.00 0.00 0.00 0.00 0.00 0.00 0.00 0.00 0.00 0.00 0.00 0.00 0.00 0.00 0.00 0.00 0.00 0.00 0.00 0.00 0.00 0.00 0.00 0.00 0.00 0.00 0.00 0.00 0.00 0.00 0.00 0.00 0.01 0.01 0.01 0.01 0.00 0.00 0.00 0.00 0.00 0.01 0.03 0.05
0.00 0.00 0.00 0.00 0.00 0.00 0.00 0.00 0.00 0.00 0.00 0.00 0.00 0.00 0.00 0.00 0.00 0.00 0.00 0.00 0.00 0.00 0.00 0.00 0.00 0.00 0.00 0.00 0.00 0.00 0.00 0.00 0.00 0.00 0.00 0.00 0.00 0.00 0.01 0.01 0.01 0.01 0.00 0.00 0.00 0.01 0.00 0.01 0.02
0.00 0.00 0.00 0.00 0.00 0.00 0.00 0.00 0.00 0.00 0.00 0.00 0.00 0.00 0.00 0.00 0.00 0.00 0.00 0.00 0.00 0.00 0.00 0.00 0.00 0.00 0.00 0.00 0.00 0.00 0.00 0.00 0.00 0.00 0.00 0.00 0.00 0.00 0.00 0.00 0.01 0.01 0.01 0.00 0.00 0.00 0.00 0.00 0.01
0.00 0.00 0.00 0.00 0.00 0.00 0.00 0.00 0.00 0.00 0.00 0.00 0.00 0.00 0.00 0.00 0.00 0.00 0.00 0.00 0.00 0.00 0.00 0.00 0.00 0.00 0.00 0.00 0.00 0.00 0.00 0.00 0.00 0.00 0.00 0.00 0.00 0.00 0.00 0.00 0.00 0.00 0.00 0.00 0.00 0.00 0.00 0.00 0.00
0.00 0.00 0.00 0.00 0.00 0.00 0.00 0.00 0.00 0.00 0.00 0.00 0.00 0.00 0.00 0.00 0.00 0.00 0.00 0.00 0.00 0.00 0.00 0.00 0.00 0.00 0.00 0.00 0.00 0.00 0.00 0.00 0.00 0.00 0.00 0.00 0.00 0.00 0.00 0.00 0.00 0.00 0.00 0.00 0.00 0.00 0.00 0.00 0.00
0.00 0.00 0.00 0.00 0.00 0.00 0.00 0.00 0.00 0.00 0.00 0.00 0.00 0.00 0.00 0.00 0.00 0.00 0.00 0.00 0.00 0.00 0.00 0.00 0.00 0.00 0.00 0.00 0.00 0.00 0.01 0.01 0.01 0.01 0.00 0.00 0.00 0.00 0.00 0.00 0.00 0.00 0.00 0.00 0.00 0.00 0.00 0.00 0.00
0.00 0.00 0.00 0.00 0.00 0.00 0.00 0.00 0.00 0.00 0.00 0.00 0.00 0.00 0.00 0.00 0.00 0.00 0.00 0.00 0.00 0.00 0.00 0.00 0.00 0.00 0.00 0.00 0.01 0.01 0.01 0.01 0.01 0.01 0.00 0.00 0.01 0.02 0.02 0.02 0.01 0.01 0.00 0.00 0.00 0.00 0.00 0.00 0.00
0.00 0.00 0.00 0.00 0.00 0.00 0.00 0.00 0.00 0.00 0.00 0.00 0.00 0.00 0.00 0.00 0.00 0.00 0.00 0.00 0.00 0.00 0.00 0.00 0.00 0.00 0.00 0.00 0.00 0.00 0.00 0.01 0.01 0.01 0.01 0.01 0.02 0.03 0.03 0.02 0.01 0.00 0.00 0.00 0.00 0.00 0.00 0.00 0.00
0.00 0.00 0.00 0.00 0.00 0.00 0.00 0.00 0.00 0.00 0.00 0.00 0.00 0.00 0.00 0.00 0.00 0.00 0.00 0.00 0.00 0.00 0.00 0.00 0.00 0.00 0.00 0.00 0.00 0.00 0.00 0.00 0.00 0.01 0.01 0.01 0.01 0.01 0.01 0.01 0.01 0.00 0.00 0.00 0.00 0.00 0.00 0.00 0.01
0.00 0.00 0.00 0.00 0.00 0.00 0.00 0.00 0.00 0.00 0.00 0.00 0.00 0.00 0.00 0.00 0.00 0.00 0.00 0.00 0.00 0.00 0.00 0.00 0.00 0.00 0.00 0.00 0.00 0.00 0.00 0.00 0.00 0.00 0.00 0.00 0.00 0.00 0.00 0.00 0.00 0.00 0.00 0.00 0.01 0.01 0.01 0.02 0.04
0.00 0.00 0.00 0.00 0.00 0.00 0.00 0.00 0.00 0.00 0.00 0.00 0.00 0.00 0.00 0.00 0.00 0.00 0.00 0.00 0.00 0.00 0.00 0.00 0.00 0.00 0.00 0.00 0.00 0.00 0.00 0.00 0.00 0.00 0.00 0.00 0.00 0.00 0.00 0.01 0.01 0.01 0.01 0.01 0.01 0.02 0.03 0.04 0.05
0.00 0.00 0.00 0.00 0.00 0.00 0.00 0.00 0.00 0.00 0.00 0.00 0.00 0.00 0.00 0.00 0.00 0.00 0.00 0.00 0.00 0.00 0.00 0.00 0.00 0.00 0.00 0.00 0.00 0.00 0.00 0.00 0.00 0.00 0.00 0.00 0.00 0.00 0.00 0.01 0.01 0.02 0.02 0.02 0.03 0.03 0.05 0.07 0.09
0.00 0.00 0.00 0.00 0.00 0.00 0.00 0.00 0.00 0.00 0.00 0.00 0.00 0.00 0.00 0.00 0.00 0.00 0.00 0.00 0.00 0.00 0.00 0.00 0.00 0.00 0.00 0.00 0.00 0.00 0.00 0.00 0.00 0.00 0.00 0.00 0.00 0.00 0.00 0.01 0.01 0.01 0.02 0.02 0.03 0.04 0.06 0.08 0.10
0.00 0.00 0.00 0.00 0.00 0.00 0.00 0.00 0.00 0.00 0.00 0.00 0.00 0.00 0.00 0.00 0.00 0.00 0.00 0.00 0.00 0.00 0.00 0.00 0.00 0.00 0.00 0.00 0.00 0.00 0.00 0.00 0.00 0.00 0.00 0.00 0.00 0.00 0.01 0.01 0.01 0.01 0.01 0.02 0.02 0.03 0.03 0.04 0.06
0.00 0.00 0.00 0.00 0.00 0.00 0.00 0.00 0.00 0.00 0.00 0.00 0.00 0.00 0.00 0.00 0.00 0.00 0.00 0.00 0.00 0.00 0.00 0.00 0.00 0.00 0.00 0.00 0.00 0.00 0.00 0.00 0.00 0.00 0.00 0.00 0.00 0.00 0.00 0.00 0.00 0.00 0.00 0.00 0.01 0.01 0.01 0.01 0.00
0.00 0.00 0.00 0.00 0.00 0.00 0.00 0.00 0.00 0.00 0.00 0.00 0.00 0.00 0.00 0.00 0.00 0.00 0.00 0.00 0.00 0.00 0.00 0.00 0.00 0.00 0.00 0.00 0.00 0.00 0.00 0.00 0.00 0.00 0.00 0.00 0.00 0.00 0.00 0.00 0.00 0.00 0.00 0.00 0.00 0.00 0.01 0.01 0.00
0.00 0.00 0.00 0.00 0.00 0.00 0.00 0.00 0.00 0.00 0.00 0.00 0.00 0.00 0.00 0.00 0.00 0.00 0.00 0.00 0.00 0.00 0.00 0.00 0.00 0.00 0.00 0.00 0.00 0.00 0.00 0.00 0.00 0.00 0.00 0.00 0.00 0.00 0.00 0.00 0.00 0.00 0.00 0.00 0.00 0.00 0.00 0.00 0.00
0.00 0.00 0.00 0.00 0.00 0.00 0.00 0.00 0.00 0.00 0.00 0.00 0.00 0.00 0.00 0.00 0.00 0.00 0.00 0.00 0.00 0.00 0.00 0.00 0.00 0.00 0.00 0.00 0.00 0.00 0.00 0.00 0.00 0.00 0.00 0.00 0.00 0.00 0.00 0.00 0.00 0.00 0.00 0.00 0.00 0.00 0.00 0.00 0.00
0.00 0.00 0.00 0.00 0.00 0.00 0.00 0.00 0.00 0.00 0.00 0.00 0.00 0.00 0.00 0.00 0.00 0.00 0.00 0.00 0.00 0.00 0.00 0.00 0.00 0.00 0.00 0.00 0.00 0.00 0.00 0.00 0.00 0.00 0.00 0.00 0.00 0.00 0.00 0.00 0.00 0.00 0.00 0.00 0.00 0.00 0.00 0.00 0.00
0.00 0.00 0.00 0.00 0.00 0.00 0.00 0.00 0.00 0.00 0.00 0.00 0.00 0.00 0.00 0.00 0.00 0.00 0.00 0.00 0.00 0.00 0.00 0.00 0.00 0.00 0.00 0.00 0.00 0.00 0.00 0.00 0.00 0.00 0.00 0.00 0.01 0.00 0.00 0.00 0.00 0.00 0.00 0.00 0.00 0.00 0.00 0.00 0.00
0.00 0.00 0.00 0.00 0.00 0.00 0.00 0.00 0.00 0.00 0.00 0.00 0.00 0.00 0.00 0.00 0.00 0.00 0.00 0.00 0.00 0.00 0.00 0.00 0.00 0.00 0.00 0.00 0.00 0.00 0.00 0.00 0.00 0.00 0.00 0.01 0.01 0.01 0.00 0.00 0.00 0.00 0.00 0.00 0.00 0.00 0.00 0.00 0.00
0.00 0.00 0.00 0.00 0.00 0.00 0.00 0.00 0.00 0.00 0.00 0.00 0.00 0.00 0.00 0.00 0.00 0.00 0.00 0.00 0.00 0.00 0.00 0.00 0.00 0.00 0.00 0.00 0.00 0.00 0.00 0.00 0.00 0.00 0.00 0.00 0.00 0.00 0.01 0.00 0.00 0.00 0.00 0.00 0.00 0.00 0.00 0.00 0.00
0.00 0.00 0.00 0.00 0.00 0.00 0.00 0.00 0.00 0.00 0.00 0.00 0.00 0.00 0.00 0.00 0.00 0.00 0.00 0.00 0.00 0.00 0.00 0.00 0.00 0.00 0.00 0.00 0.00 0.00 0.00 0.00 0.00 0.00 0.00 0.00 0.00 0.00 0.00 0.00 0.00 0.00 0.00 0.00 0.00 0.00 0.00 0.00 0.00
0.00 0.00 0.00 0.00 0.00 0.00 0.00 0.00 0.00 0.00 0.00 0.00 0.00 0.00 0.00 0.00 0.00 0.00 0.00 0.00 0.00 0.00 0.00 0.00 0.00 0.00 0.00 0.00 0.00 0.00 0.00 0.00 0.00 0.01 0.01 0.02 0.01 0.01 0.00 0.00 0.00 0.00 0.00 0.00 0.00 0.00 0.00 0.00 0.00
0.00 0.00 0.00 0.00 0.00 0.00 0.00 0.00 0.00 0.00 0.00 0.00 0.00 0.00 0.00 0.00 0.00 0.00 0.00 0.00 0.00 0.00 0.00 0.00 0.01 0.01 0.00 0.00 0.00 0.00 0.00 0.00 0.01 0.03 0.05 0.04 0.03 0.01 0.01 0.01 0.00 0.00 0.00 0.00 0.00 0.00 0.00 0.00 0.00
MSLP
1010.43 1010.91 1011.43 1011.87 1012.14 1012.16 1011.92 1011.47 1010.89 1010.28 1009.77 1009.42 1009.26 1009.27 1009.39 1009.52 1009.59 1009.55 1009.38 1009.14 1008.89 1008.71 1008.67 1008.81 1009.12 1009.54 1010.02 1010.45 1010.78 1010.99 1011.07 1011.07 1011.04 1011.04 1011.10 1011.24 1011.44 1011.66 1011.85 1012.01 1012.10 1012.14 1012.17 1012.20 1012.28 1012.40 1012.57 1012.75 1012.91
1010.68 1011.18 1011.67 1012.05 1012.21 1012.11 1011.75 1011.20 1010.54 1009.90 1009.37 1009.03 1008.88 1008.90 1009.01 1009.13 1009.18 1009.11 1008.93 1008.70 1008.47 1008.34 1008.37 1008.58 1008.96 1009.45 1009.96 1010.43 1010.79 1011.00 1011.10 1011.10 1011.09 1011.09 1011.16 1011.29 1011.47 1011.66 1011.82 1011.93 1011.98 1011.99 1012.00 1012.03 1012.11 1012.25 1012.44 1012.63 1012.81
1010.99 1011.49 1011.93 1012.22 1012.27 1012.06 1011.60 1010.97 1010.26 1009.60 1009.08 1008.74 1008.61 1008.62 1008.70 1008.79 1008.80 1008.69 1008.50 1008.27 1008.07 1007.98 1008.07 1008.34 1008.78 1009.32 1009.87 1010.36 1010.73 1010.96 1011.06 1011.09 1011.08 1011.10 1011.17 1011.30 1011.46 1011.63 1011.75 1011.83 1011.85 1011.85 1011.84 1011.88 1011.97 1012.13 1012.33 1012.54 1012.73
1011.37 1011.85 1012.23 1012.42 1012.37 1012.06 1011.52 1010.84 1010.12 1009.46 1008.95 1008.63 1008.49 1008.48 1008.53 1008.56 1008.51 1008.37 1008.15 1007.92 1007.75 1007.71 1007.85 1008.17 1008.65 1009.20 1009.76 1010.25 1010.62 1010.85 1010.96 1011.00 1011.02 1011.05 1011.14 1011.26 1011.42 1011.57 1011.68 1011.74 1011.75 1011.74 1011.75 1011.79 1011.90 1012.07 1012.28 1012.50 1012.69
1011.79 1012.24 1012.55 1012.65 1012.50 1012.12 1011.53 1010.84 1010.12 1009.49 1009.01 1008.70 1008.54 1008.50 1008.49 1008.46 1008.36 1008.18 1007.94 1007.72 1007.58 1007.58 1007.75 1008.10 1008.58 1009.14 1009.68 1010.14 1010.49 1010.70 1010.81 1010.85 1010.88 1010.93 1011.03 1011.17 1011.33 1011.48 1011.59 1011.65 1011.68 1011.69 1011.72 1011.79 1011.91 1012.09 1012.30 1012.52 1012.69
1012.22 1012.61 1012.85 1012.87 1012.65 1012.21 1011.61 1010.92 1010.24 1009.65 1009.20 1008.91 1008.74 1008.66 1008.60 1008.50 1008.34 1008.13 1007.88 1007.67 1007.56 1007.59 1007.78 1008.14 1008.61 1009.13 1009.62 1010.04 1010.34 1010.52 1010.61 1010.66 1010.69 1010.76 1010.87 1011.02 1011.19 1011.35 1011.48 1011.57 1011.62 1011.67 1011.73 1011.83 1011.97 1012.16 1012.36 1012.55 1012.70
1012.57 1012.91 1013.07 1013.02 1012.75 1012.29 1011.70 1011.05 1010.42 1009.89 1009.48 1009.20 1009.03 1008.90 1008.79 1008.64 1008.44 1008.19 1007.95 1007.76 1007.67 1007.72 1007.93 1008.28 1008.71 1009.17 1009.60 1009.94 1010.18 1010.33 1010.40 1010.43 1010.47 1010.55 1010.67 1010.84 1011.02 1011.19 1011.34 1011.46 1011.55 1011.63 1011.73 1011.86 1012.02 1012.20 1012.39 1012.55 1012.66
1012.81 1013.08 1013.17 1013.06 1012.75 1012.29 1011.73 1011.15 1010.59 1010.13 1009.78 1009.52 1009.34 1009.19 1009.03 1008.83 1008.60 1008.35 1008.11 1007.94 1007.88 1007.95 1008.15 1008.47 1008.85 1009.23 1009.58 1009.85 1010.03 1010.13 1010.17 1010.20 1010.24 1010.33 1010.46 1010.63 1010.81 1010.99 1011.16 1011.30 1011.42 1011.54 1011.67 1011.82 1011.99 1012.16 1012.32 1012.45 1012.52
1012.90 1013.09 1013.11 1012.95 1012.63 1012.19 1011.69 1011.18 1010.73 1010.35 1010.05 1009.83 1009.65 1009.48 1009.29 1009.07 1008.82 1008.57 1008.35 1008.20 1008.16 1008.23 1008.42 1008.68 1009.00 1009.30 1009.56 1009.75 1009.87 1009.93 1009.95 1009.98 1010.03 1010.12 1010.25 1010.42 1010.60 1010.78 1010.94 1011.09 1011.23 1011.37 1011.52 1011.68 1011.84 1012.00 1012.12 1012.21 1012.25
1012.84 1012.96 1012.91 1012.71 1012.39 1011.99 1011.57 1011.17 1010.82 1010.54 1010.32 1010.14 1009.98 1009.81 1009.61 1009.38 1009.12 1008.87 1008.66 1008.53 1008.49 1008.56 1008.70 1008.91 1009.14 1009.36 1009.53 1009.65 1009.71 1009.74 1009.75 1009.78 1009.84 1009.93 1010.07 1010.22 1010.39 1010.55 1010.70 1010.84 1010.98 1011.12 1011.27 1011.42 1011.57 1011.70 1011.80 1011.85 1011.86
1012.69 1012.73 1012.62 1012.40 1012.09 1011.76 1011.43 1011.14 1010.92 1010.75 1010.62 1010.51 1010.39 1010.23 1010.03 1009.79 1009.54 1009.29 1009.09 1008.96 1008.91 1008.94 1009.03 1009.16 1009.30 1009.42 1009.51 1009.56 1009.57 1009.58 1009.59 1009.62 1009.69 1009.79 1009.92 1010.06 1010.21 1010.34 1010.46 1010.58 1010.70 1010.83 1010.96 1011.09 1011.22 1011.33 1011.39 1011.41 1011.40
1012.54 1012.49 1012.34 1012.10 1011.83 1011.56 1011.34 1011.19 1011.10 1011.06 1011.04 1011.01 1010.93 1010.81 1010.62 1010.39 1010.13 1009.89 1009.68 1009.52 1009.44 1009.41 1009.43 1009.46 1009.50 1009.52 1009.52 1009.50 1009.47 1009.46 1009.46 1009.50 1009.58 1009.69 1009.82 1009.94 1010.06 1010.17 1010.26 1010.34 1010.43 1010.53 1010.64 1010.75 1010.85 1010.93 1010.97 1010.96 1010.93
1012.46 1012.35 1012.15 1011.91 1011.68 1011.50 1011.40 1011.38 1011.43 1011.52 1011.61 1011.67 1011.67 1011.58 1011.42 1011.20 1010.94 1010.69 1010.46 1010.26 1010.12 1010.01 1009.93 1009.87 1009.79 1009.71 1009.62 1009.53 1009.45 1009.40 1009.40 1009.44 1009.52 1009.63 1009.75 1009.86 1009.95 1010.03 1010.09 1010.15 1010.21 1010.28 1010.36 1010.44 1010.52 1010.57 1010.59 1010.57 1010.53
1012.55 1012.39 1012.16 1011.93 1011.74 1011.65 1011.65 1011.76 1011.95 1012.17 1012.39 1012.54 1012.61 1012.58 1012.45 1012.24 1011.98 1011.70 1011.44 1011.19 1010.97 1010.77 1010.59 1010.41 1010.22 1010.03 1009.84 1009.67 1009.54 1009.45 1009.41 1009.44 1009.50 1009.60 1009.70 1009.80 1009.87 1009.93 1009.97 1010.01 1010.05 1010.09 1010.15 1010.22 1010.27 1010.31 1010.31 1010.28 1010.23
1012.83 1012.63 1012.39 1012.17 1012.03 1012.01 1012.11 1012.34 1012.65 1012.99 1013.31 1013.56 1013.71 1013.73 1013.64 1013.45 1013.19 1012.89 1012.57 1012.26 1011.97 1011.67 1011.39 1011.09 1010.80 1010.50 1010.22 1009.96 1009.76 1009.61 1009.52 1009.49 1009.52 1009.58 1009.66 1009.73 1009.80 1009.84 1009.87 1009.90 1009.93 1009.97 1010.02 1010.06 1010.11 1010.13 1010.13 1010.10 1010.05
1013.29 1013.07 1012.82 1012.62 1012.52 1012.55 1012.73 1013.05 1013.46 1013.90 1014.31 1014.65 1014.86 1014.94 1014.89 1014.72 1014.46 1014.14 1013.79 1013.42 1013.05 1012.67 1012.29 1011.90 1011.51 1011.12 1010.75 1010.41 1010.11 1009.88 1009.72 1009.62 1009.58 1009.58 1009.61 1009.65 1009.70 1009.73 1009.77 1009.80 1009.84 1009.88 1009.92 1009.97 1010.01 1010.03 1010.03 1010.00 1009.95
1013.88 1013.65 1013.40 1013.21 1013.14 1013.21 1013.45 1013.82 1014.29 1014.80 1015.28 1015.68 1015.96 1016.10 1016.09 1015.95 1015.70 1015.36 1014.98 1014.56 1014.13 1013.69 1013.23 1012.77 1012.31 1011.85 1011.40 1010.98 1010.60 1010.27 1010.00 1009.80 1009.66 1009.58 1009.54 1009.53 1009.55 1009.59 1009.63 1009.68 1009.73 1009.78 1009.83 1009.88 1009.92 1009.95 1009.96 1009.94 1009.91
1014.51 1014.28 1014.04 1013.86 1013.81 1013.90 1014.16 1014.56 1015.06 1015.60 1016.13 1016.58 1016.90 1017.09 1017.12 1017.01 1016.78 1016.45 1016.04 1015.60 1015.12 1014.63 1014.14 1013.63 1013.13 1012.62 1012.12 1011.64 1011.17 1010.74 1010.36 1010.04 1009.78 1009.58 1009.46 1009.39 1009.37 1009.39 1009.44 1009.51 1009.58 1009.66 1009.72 1009.78 1009.83 1009.86 1009.88 1009.89 1009.88
1015.11 1014.89 1014.66 1014.50 1014.45 1014.55 1014.80 1015.20 1015.70 1016.25 1016.79 1017.26 1017.63 1017.85 1017.93 1017.85 1017.64 1017.31 1016.91 1016.44 1015.94 1015.43 1014.92 1014.40 1013.89 1013.37 1012.85 1012.32 1011.79 1011.27 1010.78 1010.32 1009.93 1009.61 1009.37 1009.22 1009.16 1009.16 1009.21 1009.30 1009.40 1009.50 1009.58 1009.65 1009.71 1009.75 1009.78 1009.81 1009.83
1015.63 1015.43 1015.22 1015.07 1015.02 1015.11 1015.35 1015.72 1016.19 1016.72 1017.25 1017.73 1018.12 1018.38 1018.49 1018.45 1018.26 1017.94 1017.53 1017.05 1016.54 1016.02 1015.51 1015.01 1014.52 1014.02 1013.50 1012.97 1012.40 1011.81 1011.21 1010.63 1010.10 1009.65 1009.30 1009.07 1008.94 1008.92 1008.97 1009.08 1009.20 1009.33 1009.43 1009.52 1009.58 1009.62 1009.67 1009.72 1009.77
1016.06 1015.88 1015.70 1015.56 1015.52 1015.60 1015.81 1016.14 1016.57 1017.06 1017.57 1018.04 1018.44 1018.72 1018.85 1018.83 1018.65 1018.34 1017.92 1017.43 1016.91 1016.39 1015.89 1015.42 1014.96 1014.51 1014.04 1013.52 1012.94 1012.31 1011.64 1010.96 1010.31 1009.73 1009.26 1008.93 1008.75 1008.70 1008.75 1008.87 1009.02 1009.18 1009.30 1009.40 1009.47 1009.52 1009.57 1009.63 1009.70
1016.43 1016.27 1016.12 1016.01 1015.98 1016.05 1016.23 1016.52 1016.90 1017.34 1017.81 1018.26 1018.65 1018.93 1019.08 1019.06 1018.89 1018.56 1018.12 1017.61 1017.07 1016.54 1016.06 1015.61 1015.22 1014.83 1014.41 1013.95 1013.39 1012.75 1012.03 1011.27 1010.52 1009.83 1009.26 1008.84 1008.60 1008.51 1008.56 1008.70 1008.89 1009.07 1009.23 1009.34 1009.41 1009.46 1009.50 1009.56 1009.65
1016.78 1016.65 1016.53 1016.46 1016.45 1016.52 1016.68 1016.93 1017.26 1017.64 1018.06 1018.48 1018.84 1019.11 1019.25 1019.22 1019.03 1018.68 1018.20 1017.65 1017.08 1016.54 1016.05 1015.65 1015.30 1014.98 1014.64 1014.24 1013.73 1013.11 1012.37 1011.56 1010.72 1009.94 1009.28 1008.78 1008.48 1008.37 1008.42 1008.58 1008.80 1009.03 1009.22 1009.35 1009.43 1009.47 1009.50 1009.54 1009.63
1017.18 1017.07 1016.99 1016.96 1016.97 1017.05 1017.20 1017.41 1017.69 1018.02 1018.38 1018.75 1019.07 1019.31 1019.41 1019.36 1019.13 1018.74 1018.22 1017.62 1017.01 1016.44 1015.95 1015.56 1015.26 1015.01 1014.75 1014.42 1013.97 1013.38 1012.64 1011.79 1010.90 1010.05 1009.30 1008.74 1008.38 1008.24 1008.29 1008.49 1008.75 1009.02 1009.26 1009.42 1009.51 1009.55 1009.56 1009.58 1009.64
1017.66 1017.57 1017.52 1017.53 1017.58 1017.67 1017.81 1017.99 1018.22 1018.49 1018.79 1019.09 1019.36 1019.54 1019.61 1019.51 1019.23 1018.79 1018.22 1017.57 1016.92 1016.32 1015.82 1015.45 1015.19 1014.99 1014.80 1014.53 1014.14 1013.58 1012.85 1011.98 1011.04 1010.12 1009.31 1008.68 1008.28 1008.12 1008.17 1008.39 1008.70 1009.03 1009.31 1009.52 1009.64 1009.68 1009.67 1009.66 1009.68
1018.21 1018.14 1018.14 1018.18 1018.27 1018.38 1018.51 1018.66 1018.83 1019.03 1019.26 1019.49 1019.69 1019.81 1019.82 1019.68 1019.36 1018.87 1018.26 1017.57 1016.88 1016.26 1015.75 1015.38 1015.15 1014.99 1014.85 1014.63 1014.28 1013.74 1013.02 1012.13 1011.15 1010.17 1009.30 1008.61 1008.16 1007.98 1008.03 1008.28 1008.63 1009.02 1009.36 1009.61 1009.77 1009.82 1009.81 1009.77 1009.75
1018.82 1018.77 1018.81 1018.90 1019.02 1019.14 1019.26 1019.37 1019.49 1019.62 1019.77 1019.91 1020.04 1020.10 1020.05 1019.86 1019.51 1019.00 1018.36 1017.66 1016.95 1016.32 1015.81 1015.45 1015.23 1015.09 1014.97 1014.78 1014.44 1013.91 1013.18 1012.26 1011.24 1010.21 1009.28 1008.53 1008.04 1007.83 1007.88 1008.14 1008.53 1008.97 1009.37 1009.69 1009.88 1009.96 1009.96 1009.90 1009.85
1019.47 1019.45 1019.52 1019.64 1019.79 1019.92 1020.02 1020.10 1020.16 1020.21 1020.27 1020.34 1020.38 1020.38 1020.29 1020.08 1019.72 1019.21 1018.58 1017.89 1017.20 1016.58 1016.07 1015.71 1015.49 1015.35 1015.22 1015.02 1014.68 1014.13 1013.37 1012.43 1011.36 1010.29 1009.30 1008.50 1007.96 1007.72 1007.75 1008.02 1008.44 1008.91 1009.37 1009.73 1009.98 1010.10 1010.11 1010.06 1009.99
1020.13 1020.14 1020.24 1020.39 1020.55 1020.69 1020.77 1020.80 1020.80 1020.78 1020.76 1020.75 1020.73 1020.68 1020.57 1020.35 1020.01 1019.53 1018.95 1018.31 1017.66 1017.06 1016.57 1016.21 1015.97 1015.81 1015.64 1015.41 1015.02 1014.44 1013.65 1012.67 1011.57 1010.45 1009.42 1008.58 1008.00 1007.72 1007.73 1007.98 1008.40 1008.90 1009.38 1009.79 1010.08 1010.24 1010.29 1010.26 1010.19
1020.80 1020.84 1020.97 1021.14 1021.31 1021.42 1021.48 1021.46 1021.40 1021.32 1021.23 1021.16 1021.10 1021.03 1020.91 1020.72 1020.43 1020.02 1019.51 1018.93 1018.34 1017.79 1017.32 1016.95 1016.68 1016.46 1016.24 1015.94 1015.49 1014.86 1014.03 1013.02 1011.89 1010.76 1009.71 1008.84 1008.23 1007.92 1007.89 1008.11 1008.51 1009.00 1009.49 1009.92 1010.24 1010.43 1010.51 1010.51 1010.46
Thickness
5742 5747 5751 5741 5723 5714 5721 5749 5760 5757 5761 5767 5771 5770 5765 5762 5753 5744 5770 5785 5786 5784 5778 5771 5768 5764 5760 5758 5756 5755 5754 5752 5750 5749 5747 5746 5746 5745 5745 5745 5744 5742 5741 5740 5739 5739 5737 5736 5735
5741 5747 5742 5728 5712 5707 5730 5749 5752 5754 5760 5768 5770 5769 5767 5766 5773 5769 5773 5779 5782 5781 5776 5770 5764 5759 5755 5752 5751 5750 5749 5748 5746 5745 5744 5743 5742 5742 5741 5742 5741 5740 5738 5738 5737 5736 5734 5733 5732
5740 5745 5729 5718 5714 5719 5729 5746 5748 5759 5766 5764 5764 5769 5764 5762 5772 5771 5772 5777 5778 5777 5774 5767 5760 5755 5750 5748 5747 5746 5746 5745 5743 5741 5740 5740 5739 5738 5738 5738 5738 5736 5735 5735 5734 5732 5731 5730 5729
5739 5734 5728 5713 5712 5736 5741 5746 5751 5753 5761 5763 5760 5758 5765 5772 5772 5770 5772 5775 5774 5774 5771 5761 5755 5750 5747 5745 5744 5743 5742 5741 5739 5738 5737 5736 5735 5735 5734 5734 5733 5732 5732 5731 5730 5729 5728 5726 5726
5736 5723 5713 5709 5722 5741 5750 5751 5751 5747 5753 5759 5757 5750 5755 5769 5772 5770 5768 5769 5768 5769 5766 5757 5752 5747 5744 5742 5741 5739 5738 5736 5735 5734 5733 5732 5731 5730 5730 5729 5729 5729 5728 5727 5726 5725 5724 5723 5722
5723 5720 5704 5706 5726 5740 5747 5749 5748 5746 5751 5757 5755 5748 5748 5763 5764 5762 5764 5765 5765 5762 5760 5754 5748 5744 5740 5738 5735 5734 5732 5731 5729 5728 5728 5728 5727 5726 5726 5725 5725 5725 5724 5723 5722 5721 5720 5719 5719
5713 5710 5704 5713 5719 5730 5739 5746 5741 5736 5738 5744 5749 5740 5744 5751 5758 5761 5761 5759 5758 5756 5753 5749 5744 5740 5736 5733 5731 5729 5727 5726 5724 5723 5722 5722 5722 5722 5721 5721 5721 5720 5719 5718 5717 5716 5716 5715 5715
5718 5710 5709 5718 5719 5723 5738 5743 5743 5738 5736 5751 5752 5736 5734 5746 5757 5756 5754 5751 5749 5746 5745 5742 5742 5740 5737 5733 5730 5726 5724 5722 5720 5718 5717 5716 5716 5716 5716 5715 5716 5715 5713 5712 5711 5711 5711 5711 5711
5717 5700 5699 5713 5714 5721 5734 5732 5736 5744 5741 5744 5749 5746 5746 5748 5749 5745 5742 5740 5738 5738 5737 5735 5734 5735 5734 5732 5729 5724 5721 5718 5716 5714 5713 5712 5711 5711 5711 5711 5710 5708 5707 5706 5706 5706 5706 5707 5708
5708 5692 5707 5718 5720 5718 5722 5722 5726 5730 5725 5726 5731 5737 5739 5741 5740 5734 5731 5729 5730 5728 5728 5727 5725 5725 5725 5726 5723 5721 5719 5716 5712 5712 5711 5709 5709 5709 5710 5708 5705 5703 5702 5701 5701 5702 5703 5703 5704
5711 5702 5713 5721 5724 5718 5715 5716 5723 5715 5708 5713 5715 5720 5725 5727 5727 5728 5727 5725 5722 5721 5719 5717 5716 5716 5716 5716 5715 5715 5715 5713 5711 5710 5710 5708 5707 5707 5705 5704 5702 5701 5700 5698 5699 5699 5699 5700 5702
5712 5711 5718 5718 5721 5715 5711 5711 5710 5709 5709 5717 5718 5717 5717 5716 5715 5716 5717 5715 5714 5712 5710 5708 5708 5708 5707 5707 5705 5703 5705 5705 5705 5705 5704 5703 5702 5700 5698 5697 5697 5697 5697 5696 5696 5696 5696 5697 5698
5709 5710 5717 5719 5718 5716 5711 5706 5706 5706 5714 5714 5709 5703 5701 5701 5702 5705 5708 5708 5706 5704 5703 5700 5700 5699 5698 5697 5696 5694 5695 5696 5696 5695 5695 5695 5693 5691 5690 5689 5689 5689 5690 5689 5690 5690 5690 5691 5692
5710 5708 5709 5713 5713 5710 5701 5698 5698 5696 5705 5699 5690 5684 5682 5682 5683 5687 5690 5693 5692 5692 5693 5691 5690 5689 5689 5688 5687 5687 5687 5687 5686 5686 5685 5684 5684 5682 5681 5680 5680 5680 5681 5681 5682 5682 5683 5685 5686
5708 5699 5701 5709 5707 5702 5695 5679 5676 5689 5691 5682 5675 5670 5667 5666 5667 5667 5671 5675 5677 5678 5680 5679 5679 5677 5676 5677 5677 5677 5677 5677 5676 5676 5675 5674 5674 5672 5671 5670 5669 5670 5671 5672 5672 5673 5675 5676 5678
5700 5691 5685 5692 5700 5697 5684 5662 5668 5679 5675 5664 5658 5654 5651 5649 5650 5653 5656 5658 5660 5661 5663 5665 5666 5665 5663 5663 5664 5664 5665 5665 5665 5664 5664 5663 5662 5662 5660 5658 5658 5659 5659 5660 5660 5662 5663 5664 5666
5688 5675 5678 5681 5690 5688 5677 5659 5662 5669 5662 5650 5643 5639 5638 5636 5637 5639 5641 5642 5642 5642 5644 5646 5648 5649 5649 5649 5649 5649 5649 5649 5649 5650 5650 5649 5649 5649 5648 5647 5647 5647 5647 5647 5648 5649 5650 5651 5652
5660 5663 5668 5671 5679 5677 5667 5657 5652 5657 5650 5637 5630 5626 5624 5623 5622 5623 5625 5626 5625 5625 5625 5627 5629 5631 5633 5634 5634 5633 5633 5633 5634 5634 5635 5634 5634 5634 5634 5634 5634 5635 5634 5633 5633 5634 5637 5638 5638
5667 5664 5663 5674 5678 5671 5663 5656 5643 5643 5635 5625 5617 5612 5609 5609 5608 5608 5608 5608 5606 5605 5604 5606 5608 5610 5611 5613 5613 5613 5614 5616 5618 5620 5620 5619 5618 5618 5619 5618 5618 5620 5619 5618 5619 5620 5620 5622 5623
5667 5663 5665 5672 5677 5666 5660 5654 5636 5631 5622 5614 5607 5600 5595 5594 5594 5592 5590 5588 5587 5584 5582 5582 5584 5587 5588 5590 5593 5596 5599 5600 5601 5604 5605 5603 5601 5602 5603 5602 5602 5603 5604 5603 5604 5604 5604 5605 5607
5661 5658 5651 5649 5656 5660 5655 5644 5622 5618 5614 5606 5597 5590 5586 5582 5578 5576 5573 5570 5568 5565 5563 5562 5562 5564 5566 5568 5572 5576 5580 5583 5583 5583 5584 5585 5584 5585 5585 5585 5585 5586 5588 5587 5587 5588 5588 5587 5590
5645 5654 5647 5644 5633 5633 5640 5617 5601 5602 5596 5589 5581 5576 5572 5568 5564 5560 5557 5554 5551 5549 5546 5544 5544 5542 5541 5541 5545 5546 5550 5554 5559 5562 5565 5567 5566 5565 5566 5565 5565 5566 5569 5569 5570 5572 5571 5571 5570
5643 5646 5644 5641 5630 5622 5623 5610 5607 5591 5580 5571 5567 5563 5559 5554 5549 5543 5540 5537 5534 5532 5529 5527 5525 5523 5520 5517 5515 5515 5518 5523 5530 5535 5539 5543 5546 5546 5545 5544 5543 5543 5546 5549 5550 5553 5554 5554 5554
5645 5645 5652 5649 5631 5609 5619 5606 5590 5571 5559 5556 5553 5547 5541 5535 5531 5526 5522 5519 5516 5513 5510 5507 5503 5500 5496 5493 5488 5485 5486 5491 5498 5507 5512 5516 5520 5523 5524 5524 5522 5522 5525 5528 5530 5533 5535 5536 5537
5631 5619 5617 5614 5610 5608 5618 5605 5563 5556 5552 5544 5535 5526 5521 5517 5513 5509 5505 5500 5495 5490 5486 5483 5480 5477 5472 5467 5463 5459 5458 5461 5469 5479 5486 5491 5496 5499 5503 5504 5502 5503 5506 5509 5511 5513 5515 5518 5520
5613 5607 5586 5576 5585 5596 5602 5586 5544 5552 5541 5530 5519 5511 5506 5500 5492 5486 5481 5475 5470 5465 5460 5457 5455 5452 5449 5444 5439 5435 5433 5435 5443 5453 5464 5472 5476 5478 5483 5487 5486 5485 5488 5491 5492 5494 5496 5500 5503
5603 5593 5589 5574 5577 5576 5590 5537 5544 5543 5525 5512 5500 5491 5481 5474 5468 5462 5457 5450 5445 5440 5437 5433 5431 5428 5424 5419 5416 5413 5411 5412 5420 5432 5445 5456 5461 5461 5462 5467 5468 5468 5471 5474 5477 5479 5480 5484 5487
5601 5590 5576 5570 5561 5557 5569 5563 5529 5516 5498 5486 5475 5467 5461 5454 5446 5439 5432 5426 5422 5418 5415 5413 5411 5407 5400 5393 5387 5385 5384 5388 5395 5408 5424 5439 5448 5450 5447 5448 5449 5451 5455 5459 5462 5464 5466 5468 5470
5585 5584 5574 5562 5553 5534 5534 5535 5517 5487 5473 5463 5457 5450 5439 5431 5424 5419 5413 5408 5404 5399 5397 5396 5392 5385 5375 5364 5357 5354 5357 5363 5372 5384 5401 5419 5431 5435 5435 5434 5432 5435 5440 5445 5448 5450 5453 5454 5455
5575 5567 5554 5534 5530 5521 5505 5513 5511 5480 5463 5450 5440 5435 5425 5416 5408 5400 5392 5390 5387 5383 5381 5379 5373 5362 5350 5342 5338 5337 5339 5344 5353 5365 5381 5398 5410 5416 5418 5420 5420 5423 5428 5431 5434 5437 5439 5439 5440